Weather History for YSCB - September, 2013

Change the Weather History Date:

Monday, September 23, 2013

  Actual Average Record
Temperature  
Mean Temperature 54 °F -  
Max Temperature 74 °F 66 °F - ()
Min Temperature 35 °F 42 °F - ()
Degree Days  
Heating Degree Days 10    
Growing Degree Days 4 (Base 50)    
Moisture  
Dew Point 43 °F    
Average Humidity 66    
Maximum Humidity 100    
Minimum Humidity 24    
Precipitation  
Precipitation 0.00 in 0.08 in - ()
Sea Level Pressure  
Sea Level Pressure 29.86 in    
Wind  
Wind Speed 4 mph ()    
Max Wind Speed 16 mph    
Max Gust Speed -    
Visibility 6.0 miles    
Events Fog    
T = Trace of Precipitation, MM = Missing Value Source: Averaged Metar Reports

Daily Weather History Graph

Daily Weather History Graph

Search for Another Location

Airport or City:

Trip Planner

Search our weather history database for the weather conditions in past years. The results will help you decide how hot, cold, wet, or windy it might be!

Date:

Astronomy

Sep. 23, 2013 Rise Set
Actual Time 5:51 AM AEST 6:00 PM AEST
Civil Twilight 5:26 AM AEST 6:25 PM AEST
Nautical Twilight 4:56 AM AEST 6:55 PM AEST
Astronomical Twilight 4:26 AM AEST 7:25 PM AEST
Moon 9:53 PM AEST (9/23) 7:50 AM AEST (9/23)
Length of Visible Light 12h 59m
Length of Day
12h 08m
Waning Gibbous, 86% of the Moon is Illuminated
Sep 23
Waning Gibbous
Sep 27
Last Quarter
Oct 5
New
Oct 12
First Quarter
Oct 19
Full

Hourly Weather History & Observations

Time (AEST) Temp. Windchill Dew Point Humidity Pressure Visibility Wind Dir Wind Speed Gust Speed Precip Events Conditions
12:00 AM 43 °F - 42 °F 92% 29.96 in - Calm Calm - -  
12:00 AM 42.8 °F - 41.0 °F 93% 29.95 in 6.2 mi Calm Calm - N/A   Unknown
12:30 AM 41.0 °F 39.0 °F 39.2 °F 93% 29.95 in 6.2 mi NNW 3.5 mph - N/A   Unknown
1:00 AM 41 °F - 39 °F 92% 29.95 in - SE 1.2 mph - -  
1:00 AM 41.0 °F - 39.2 °F 93% 29.92 in 6.2 mi SE 1.2 mph - N/A   Unknown
1:30 AM 39.2 °F - 37.4 °F 93% 29.92 in 6.2 mi Calm Calm - N/A   Unknown
2:00 AM 39.2 °F - 37.4 °F 93% 29.92 in 6.2 mi Calm Calm - N/A   Unknown
2:30 AM 41.0 °F - 39.2 °F 93% 29.92 in 6.2 mi Calm Calm - N/A   Unknown
3:00 AM 40 °F - 39 °F 97% 29.92 in - Calm Calm - -  
3:00 AM 41.0 °F - 39.2 °F 93% 29.89 in 6.2 mi Calm Calm - N/A   Unknown
3:30 AM 39.2 °F - 37.4 °F 93% 29.89 in 6.2 mi Calm Calm - N/A   Unknown
4:00 AM 38 °F - 37 °F 95% 29.91 in - Calm Calm - -  
4:00 AM 39.2 °F - 37.4 °F 93% 29.89 in 6.2 mi Calm Calm - N/A   Unknown
4:30 AM 37.4 °F - 37.4 °F 100% 29.89 in 5.6 mi Calm Calm - N/A Fog Patches of Fog
5:00 AM 37.4 °F - 37.4 °F 100% 29.89 in 6.2 mi Calm Calm - N/A   Partly Cloudy
5:30 AM 37.4 °F - 35.6 °F 93% 29.89 in 6.2 mi Calm Calm - N/A   Partly Cloudy
5:49 AM 37.4 °F - 35.6 °F 93% 29.89 in 5.6 mi Calm Calm - N/A Fog Patches of Fog
6:00 AM 36 °F - 35 °F 92% 29.92 in - ENE 1.2 mph - -  
6:00 AM 35.6 °F - 33.8 °F 93% 29.89 in 4.3 mi ENE 1.2 mph - N/A Fog Patches of Fog
6:15 AM 35.6 °F - 35.6 °F 100% 29.89 in 5.6 mi Calm Calm - N/A Fog Patches of Fog
6:30 AM 37.4 °F - 37.4 °F 100% 29.89 in 6.2 mi Calm Calm - N/A   Partly Cloudy
7:00 AM 41 °F - 41 °F 100% 29.91 in - Calm Calm - -  
7:00 AM 41.0 °F - 41.0 °F 100% 29.89 in - Calm Calm - N/A   Clear
7:30 AM 44.6 °F - 42.8 °F 93% 29.92 in - NNW 2.3 mph - N/A   Clear
8:00 AM 50.0 °F - 46.4 °F 87% 29.92 in - ENE 2.3 mph - N/A   Clear
8:30 AM 53.6 °F - 44.6 °F 72% 29.89 in - South 1.2 mph - N/A   Clear
9:00 AM 56 °F - 47 °F 64% 29.91 in - NNW 3.5 mph - -  
9:00 AM 57.2 °F - 46.4 °F 67% 29.89 in - NNW 3.5 mph - N/A   Clear
9:30 AM 59.0 °F - 48.2 °F 67% 29.89 in - NW 3.5 mph - N/A   Clear
10:00 AM 62 °F - 45 °F 43% 29.89 in - WNW 3.5 mph - -  
10:00 AM 62.6 °F - 44.6 °F 52% 29.89 in - WNW 3.5 mph - N/A   Clear
10:30 AM 62.6 °F - 44.6 °F 52% 29.86 in - NW 5.8 mph - N/A   Clear
11:00 AM 66.2 °F - 46.4 °F 49% 29.86 in - NNW 6.9 mph - N/A   Clear
11:30 AM 68.0 °F - 44.6 °F 43% 29.86 in - NW 6.9 mph - N/A   Clear
12:00 PM 70 °F - 42 °F 25% 29.86 in - NNW 13.8 mph - -  
12:00 PM 69.8 °F - 42.8 °F 38% 29.83 in - NNW 13.8 mph - N/A   Clear
12:30 PM 69.8 °F - 41.0 °F 35% 29.83 in - NW 13.8 mph - N/A   Clear
1:00 PM 71 °F - 44 °F 26% 29.82 in - NNW 12.7 mph - -  
1:00 PM 71.6 °F - 44.6 °F 38% 29.80 in - NNW 12.7 mph - N/A   Clear
1:30 PM 73.4 °F - 48.2 °F 41% 29.80 in - NW 12.7 mph - N/A   Clear
2:00 PM 73.4 °F - 46.4 °F 38% 29.77 in - NNW 15.0 mph - N/A   Clear
2:30 PM 73.4 °F - 46.4 °F 38% 29.77 in - NW 15.0 mph - N/A   Clear
3:00 PM 74 °F - 45 °F 24% 29.79 in - NW 15.0 mph - -  
3:00 PM 73.4 °F - 44.6 °F 36% 29.77 in - NW 15.0 mph - N/A   Clear
3:30 PM 73.4 °F - 42.8 °F 33% 29.77 in - NNW 15.0 mph - N/A   Clear
4:00 PM 72 °F - 45 °F 27% 29.79 in - NW 16.1 mph - -  
4:00 PM 73.4 °F - 44.6 °F 36% 29.77 in - NW 16.1 mph - N/A   Clear
4:30 PM 71.6 °F - 46.4 °F 41% 29.77 in - North 15.0 mph - N/A   Clear
5:00 PM 69.8 °F - 46.4 °F 43% 29.77 in - North 15.0 mph - N/A   Clear
5:30 PM 66.2 °F - 42.8 °F 43% 29.77 in - NNW 13.8 mph - N/A   Clear
6:00 PM 65 °F - 40 °F 29% 29.81 in - NNW 12.7 mph - -  
6:00 PM 66.2 °F - 41.0 °F 40% 29.80 in - NNW 12.7 mph - N/A   Clear
6:30 PM 64.4 °F - 42.8 °F 45% 29.80 in - North 6.9 mph - N/A   Clear
7:00 PM 59 °F - 43 °F 44% 29.81 in - NE 4.6 mph - -  
7:00 PM 59.0 °F - 42.8 °F 55% 29.80 in - NE 4.6 mph - N/A   Clear
7:30 PM 62.6 °F - 44.6 °F 52% 29.80 in - NNW 5.8 mph - N/A   Clear
8:00 PM 59.0 °F - 46.4 °F 63% 29.83 in - NE 5.8 mph - N/A   Clear
8:30 PM 57.2 °F - 46.4 °F 67% 29.83 in - East 2.3 mph - N/A   Clear
9:00 PM 58 °F - 47 °F 58% 29.84 in - SSW 1.2 mph - -  
9:00 PM 59.0 °F - 48.2 °F 67% 29.83 in 6.2 mi SSW 1.2 mph - N/A   Unknown
9:30 PM 57.2 °F - 46.4 °F 67% 29.83 in 6.2 mi East 3.5 mph - N/A   Unknown
10:00 PM 55 °F - 48 °F 70% 29.86 in - SSW 2.3 mph - -  
10:00 PM 55.4 °F - 48.2 °F 77% 29.86 in 6.2 mi SSW 2.3 mph - N/A   Scattered Clouds
10:30 PM 57.2 °F - 48.2 °F 72% 29.83 in 6.2 mi SSW 3.5 mph - N/A   Mostly Cloudy
11:00 PM 55.4 °F - 48.2 °F 77% 29.83 in 6.2 mi South 3.5 mph - N/A   Mostly Cloudy
11:30 PM 60.8 °F - 48.2 °F 63% 29.83 in 6.2 mi ENE 3.5 mph - N/A   Overcast